This is the latest recevied weather packets stored in our database for station/object VA3JLF-1. If no packets are shown the sender has not sent any weather packets the latest 10 day(s).
| Time | Temp. | Humidity | Pressure | Rain* | Wind** | Luminosity | Snow |
|---|---|---|---|---|---|---|---|
| 1777863358 | 7.22° C | 99% | 1005.4 hPa | 0.76 mm | - | - | - |
| 1777862758 | 7.22° C | 99% | 1005 hPa | 0.51 mm | - | - | - |
| 1777862158 | 7.78° C | 99% | 1005.2 hPa | 0.51 mm | - | - | - |
| 1777861563 | 7.78° C | - | - | 0.51 mm | - | - | - |
| 1777861558 | 7.78° C | 99% | 1005 hPa | 0.51 mm | - | - | - |
| 1777860959 | 7.78° C | 99% | 1005.4 hPa | 0.25 mm | - | - | - |
| 1777860359 | 7.78° C | 99% | 1005.1 hPa | 0.51 mm | - | - | - |
| 1777859758 | 7.22° C | 99% | 1005 hPa | 0.51 mm | - | - | - |
| 1777859158 | 7.22° C | 98% | 1005.2 hPa | 0.51 mm | - | - | - |
| 1777858558 | 7.22° C | 96% | 1005.4 hPa | 0.25 mm | - | - | - |
| 1777857958 | 6.67° C | 96% | 1005.3 hPa | 0.25 mm | - | - | - |
| 1777857358 | 6.67° C | 95% | 1005.2 hPa | 0.25 mm | - | - | - |
| 1777856759 | 7.22° C | 91% | 1005.3 hPa | 0 mm | - | - | - |
| 1777856158 | 7.22° C | 84% | 1005.4 hPa | 0 mm | - | - | - |
| 1777855558 | 6.67° C | 80% | 1005.4 hPa | 0 mm | - | - | - |
| 1777854958 | 6.67° C | 77% | 1005.1 hPa | 0 mm | - | - | - |
| 1777854357 | 7.22° C | 74% | 1005.3 hPa | 0 mm | - | - | - |
| 1777853759 | 7.22° C | 72% | 1005.3 hPa | 0 mm | - | - | - |
| 1777853159 | 7.22° C | 70% | 1005.2 hPa | 0 mm | - | - | - |
| 1777852558 | 7.22° C | 70% | 1005.3 hPa | 0 mm | - | - | - |
| 1777851957 | 7.22° C | 69% | 1005.3 hPa | 0 mm | - | - | - |
| 1777851358 | 7.22° C | 67% | 1005.2 hPa | 0 mm | - | - | - |
| 1777850759 | 7.22° C | 69% | 1005.2 hPa | 0 mm | - | - | - |
| 1777850158 | 7.22° C | 68% | 1005.2 hPa | 0 mm | - | - | - |
| 1777849558 | 7.78° C | 68% | 1005.2 hPa | 0 mm | - | - | - |
* Rain latest hour (hover to see other rain measurements)
** Current wind speed in m/s (hover to see current wind gust speed)